Ramona, CA

8:57 PM PDT on April 28, 2017 (GMT -0700)
Ramona

Weather History for KRNM - April, 2014

Change the Weather History Date:

Friday, April 25, 2014

  Actual Average Record
Temperature  
Mean Temperature 56 °F 58 °F  
Max Temperature 69 °F 72 °F 93 °F (2004)
Min Temperature 42 °F 43 °F 34 °F (1974)
Degree Days  
Heating Degree Days 9 8  
Month to date heating degree days 167 241  
Since 1 July heating degree days 1834 2357  
Cooling Degree Days 0 0  
Month to date cooling degree days 3 0  
Year to date cooling degree days 3 1  
Growing Degree Days 6 (Base 50)    
Moisture  
Dew Point 47 °F    
Average Humidity 73    
Maximum Humidity 100    
Minimum Humidity 45    
Precipitation  
Precipitation 0.00 in 0.05 in 0.28 in (2015)
Month to date precipitation 0.46 1.19  
Year to date precipitation 4.56 10.70  
Since 1 July precipitation 7.32  
Snow  
Snow 0.00 in - - ()
Month to date snowfall 0.0  
Year to date snowfall 0.0  
Snow Depth 0.00 in    
Sea Level Pressure  
Sea Level Pressure 29.90 in    
Wind  
Wind Speed 6 mph (SW)    
Max Wind Speed 20 mph    
Max Gust Speed 24 mph    
Visibility 8 miles    
Events Fog , Rain    
T = Trace of Precipitation, MM = Missing Value Source: NWS Daily Summary

Daily Weather History Graph

Daily Weather History Graph

Search for Another Location

Airport or City:

Trip Planner

Search our weather history database for the weather conditions in past years. The results will help you decide how hot, cold, wet, or windy it might be!

Date:

Astronomy

Apr. 25, 2014 Rise Set
Actual Time 6:06 AM PDT 7:25 PM PDT
Civil Twilight 5:40 AM PDT 7:51 PM PDT
Nautical Twilight 5:09 AM PDT 8:22 PM PDT
Astronomical Twilight 4:37 AM PDT 8:54 PM PDT
Moon 3:44 AM PDT (4/25) 4:03 PM PDT (4/25)
Length of Visible Light 14h 11m
Length of Day
13h 19m
Waning Crescent, 14% of the Moon is Illuminated
Apr 25
Waning Crescent
Apr 28
New
May 6
First Quarter
May 14
Full
May 21
Last Quarter

Hourly Weather History & Observations

Time (PDT) Temp. Dew Point Humidity Pressure Visibility Wind Dir Wind Speed Gust Speed Precip Events Conditions
12:53 AM 46.9 °F 43.0 °F 86% 29.92 in 10.0 mi SE 3.5 mph - N/A   Clear
2:53 AM 46.0 °F 43.0 °F 89% 29.88 in 10.0 mi Calm Calm - N/A   Clear
3:53 AM 43.0 °F 39.9 °F 89% 29.89 in 9.0 mi Calm Calm - N/A   Clear
4:53 AM 43.0 °F 39.9 °F 89% 29.89 in 10.0 mi Calm Calm - N/A   Partly Cloudy
5:04 AM 45.0 °F 43.0 °F 93% 29.91 in 2.0 mi Calm Calm - N/A   Mostly Cloudy
5:06 AM 45.0 °F 43.0 °F 93% 29.91 in 1.0 mi Calm Calm - N/A   Mist
5:14 AM 45.0 °F 44.1 °F 97% 29.91 in 0.5 mi Calm Calm - N/A Fog Fog
5:24 AM 45.0 °F 44.1 °F 97% 29.91 in 0.2 mi Calm Calm - N/A Fog Fog
5:53 AM 46.0 °F 45.0 °F 96% 29.90 in 0.2 mi Calm Calm - N/A Fog Fog
6:38 AM 48.0 °F 46.0 °F 93% 29.91 in 8.0 mi ENE 3.5 mph - N/A   Overcast
6:54 AM 48.2 °F 48.2 °F 100% 29.91 in 7.0 mi East 3.5 mph - N/A   Overcast
7:00 AM 48.9 °F 48.0 °F 97% 29.90 in 7.0 mi Calm Calm - N/A   Overcast
7:09 AM 50.0 °F 48.0 °F 93% 29.93 in 7.0 mi Calm Calm - N/A   Overcast
7:53 AM 53.1 °F 48.0 °F 83% 29.92 in 8.0 mi Calm Calm - N/A   Mostly Cloudy
8:01 AM 54.0 °F 48.0 °F 80% 29.93 in 9.0 mi Calm Calm - N/A   Scattered Clouds
8:53 AM 55.9 °F 48.0 °F 75% 29.93 in 10.0 mi SSW 6.9 mph - N/A   Scattered Clouds
9:08 AM 57.9 °F 48.0 °F 70% 29.96 in 10.0 mi SSW 5.8 mph - N/A   Mostly Cloudy
9:15 AM 57.9 °F 48.0 °F 70% 29.96 in 10.0 mi Variable 3.5 mph - N/A   Scattered Clouds
9:38 AM 60.1 °F 46.9 °F 62% 29.95 in 10.0 mi SSW 5.8 mph - N/A   Mostly Cloudy
9:53 AM 60.1 °F 46.0 °F 60% 29.94 in 10.0 mi West 4.6 mph - N/A   Mostly Cloudy
10:06 AM 61.0 °F 46.9 °F 60% 29.96 in 10.0 mi Calm Calm - N/A   Scattered Clouds
10:53 AM 64.0 °F 46.0 °F 52% 29.93 in 10.0 mi Variable 6.9 mph - N/A   Scattered Clouds
11:53 AM 66.0 °F 46.0 °F 48% 29.89 in 10.0 mi South 10.4 mph - N/A   Clear
12:53 PM 68.0 °F 46.9 °F 47% 29.89 in 10.0 mi SSW 10.4 mph - N/A   Clear
1:53 PM 68.0 °F 48.9 °F 50% 29.88 in 10.0 mi West 12.7 mph - N/A   Scattered Clouds
2:53 PM 66.0 °F 48.9 °F 54% 29.88 in 10.0 mi SW 12.7 mph - N/A   Partly Cloudy
3:53 PM 64.9 °F 48.9 °F 56% 29.88 in 10.0 mi WSW 15.0 mph - N/A   Partly Cloudy
4:53 PM 60.1 °F 48.9 °F 67% 29.88 in 10.0 mi South 13.8 mph 19.6 mph N/A   Mostly Cloudy
5:53 PM 59.0 °F 48.0 °F 67% 29.87 in 10.0 mi SW 9.2 mph - N/A   Mostly Cloudy
6:53 PM 57.9 °F 48.9 °F 72% 29.88 in 10.0 mi SW 9.2 mph - N/A   Overcast
7:53 PM 55.9 °F 50.0 °F 80% 29.88 in 10.0 mi WSW 8.1 mph - N/A   Overcast
8:25 PM 57.0 °F 48.9 °F 74% 29.89 in 10.0 mi SW 8.1 mph - N/A   Overcast
8:37 PM 55.9 °F 48.9 °F 77% 29.88 in 10.0 mi South 6.9 mph - N/A   Overcast
8:53 PM 55.9 °F 50.0 °F 80% 29.87 in 10.0 mi WSW 10.4 mph - N/A   Overcast
9:01 PM 55.9 °F 50.0 °F 80% 29.89 in 10.0 mi WSW 10.4 mph - N/A   Overcast
9:26 PM 55.0 °F 48.9 °F 80% 29.90 in 10.0 mi West 9.2 mph - N/A   Overcast
9:39 PM 55.0 °F 50.0 °F 83% 29.90 in 10.0 mi WSW 10.4 mph - N/A   Overcast
9:53 PM 55.0 °F 48.9 °F 80% 29.86 in 10.0 mi WSW 8.1 mph - 0.00 in   Overcast
10:21 PM 55.0 °F 48.9 °F 80% 29.88 in 10.0 mi SW 11.5 mph - N/A   Mostly Cloudy
10:53 PM 54.0 °F 50.0 °F 86% 29.83 in 10.0 mi WSW 13.8 mph - 0.02 in Rain Light Rain
11:11 PM 53.1 °F 50.0 °F 89% 29.86 in 10.0 mi WSW 11.5 mph - 0.00 in   Mostly Cloudy
11:53 PM 53.1 °F 51.1 °F 93% 29.81 in 7.0 mi WSW 12.7 mph - 0.00 in Rain Light Rain